Date String (YYYY-MM-DD hh:mm:ss) UTC,Instrument flags,Ambient pressure (hPa),Sample flow (lpm),Bypass flow (lpm),Sample temperature (°C),Ambient temperature (°C),ASC tube jacket temperature (°C),LED temperature (°C),Box temperature (°C),Sample RH (%),Span deviation,Mass concentration (μg/m³),Mass concentration (μg/m³),Mass concentration (μg/m³)
DateTimeUTC,F1_M11,P_M11,Q1_M11,Q2_M11,T1_M11,T2_M11,T3_M11,T4_M11,T5_M11,U1_M11,ZSPAN_M11,X0_M11,X2_M11,X1_M11
2022-08-03 01:00:00,,0825.4,4.99,0.00,29.3,27.0,00.0,38.0,31.1,30.6,0000.0,0004.12,0001.97,0001.22
2022-08-03 01:01:00,,0825.4,5.00,0.00,29.2,27.0,00.0,38.0,31.0,31.0,0000.0,0005.05,0002.13,0001.32
2022-08-03 01:02:00,,0825.4,5.00,0.00,29.2,27.1,00.0,37.9,31.0,31.5,0000.0,0005.99,0002.32,0001.44
2022-08-03 01:03:00,,0825.4,4.99,0.00,29.2,27.3,00.0,37.9,31.0,31.8,0000.0,0006.39,0002.50,0001.56
2022-08-03 01:04:00,,0825.4,5.02,0.00,29.2,27.5,00.0,37.9,31.0,32.0,0000.0,0006.86,0002.71,0001.67
2022-08-03 01:05:00,,0825.3,4.99,0.00,29.2,27.7,00.0,37.9,31.1,32.2,0000.0,0007.11,0002.86,0001.79
2022-08-03 01:06:00,,0825.3,4.99,0.00,29.2,27.9,00.0,38.0,31.2,32.3,0000.0,0007.58,0002.98,0001.90
2022-08-03 01:07:00,,0825.3,5.01,0.00,29.3,28.0,00.0,38.0,31.2,32.1,0000.0,0008.24,0003.14,0002.02
2022-08-03 01:08:00,,0825.3,5.01,0.00,29.3,28.2,00.0,38.0,31.3,32.1,0000.0,0009.09,0003.19,0002.15
2022-08-03 01:09:00,,0825.3,4.99,0.00,29.3,27.9,00.0,38.0,31.2,32.1,0000.0,0010.16,0003.25,0002.25
2022-08-03 01:10:00,,0825.3,5.01,0.00,29.3,27.2,00.0,38.0,31.0,32.2,0000.0,0010.28,0003.28,0002.29
2022-08-03 01:11:00,,0825.3,5.00,0.00,29.2,26.9,00.0,38.0,31.0,32.2,0000.0,0010.48,0003.32,0002.32
2022-08-03 01:12:00,,0825.3,5.00,0.00,29.2,26.9,00.0,37.9,30.9,32.3,0000.0,0010.17,0003.33,0002.35
2022-08-03 01:13:00,,0825.3,4.98,0.00,29.1,27.0,00.0,37.9,30.8,32.5,0000.0,0010.03,0003.35,0002.35
2022-08-03 01:14:00,,0825.3,5.00,0.00,29.1,27.2,00.0,37.9,30.9,32.6,0000.0,0010.04,0003.36,0002.36
2022-08-03 01:15:00,,0825.3,4.99,0.00,29.1,27.4,00.0,37.9,31.0,32.7,0000.0,0010.09,0003.38,0002.38
2022-08-03 01:16:00,,0825.4,5.01,0.00,29.1,27.6,00.0,37.9,31.1,32.8,0000.0,0010.01,0003.36,0002.37
2022-08-03 01:17:00,,0825.3,4.99,0.00,29.2,27.8,00.0,37.9,31.1,32.8,0000.0,0009.67,0003.36,0002.36
2022-08-03 01:18:00,,0825.3,4.99,0.00,29.2,28.0,00.0,38.0,31.2,32.7,0000.0,0009.68,0003.32,0002.34
2022-08-03 01:19:00,,0825.3,5.00,0.00,29.3,28.2,00.0,38.0,31.3,32.5,0000.0,0009.23,0003.31,0002.32
2022-08-03 01:20:00,,0825.3,5.01,0.00,29.3,28.0,00.0,38.0,31.3,32.6,0000.0,0008.17,0003.26,0002.30
2022-08-03 01:21:00,,0825.3,4.99,0.00,29.3,27.4,00.0,38.0,31.1,32.7,0000.0,0008.02,0003.25,0002.28
2022-08-03 01:22:00,,0825.4,5.00,0.00,29.2,26.9,00.0,37.9,31.0,33.0,0000.0,0007.85,0003.22,0002.27
2022-08-03 01:23:00,,0825.4,5.00,0.00,29.2,26.9,00.0,37.9,31.0,33.2,0000.0,0007.73,0003.19,0002.25
2022-08-03 01:24:00,,0825.5,5.01,0.00,29.1,27.0,00.0,37.9,30.9,33.4,0000.0,0007.52,0003.14,0002.25
2022-08-03 01:25:00,,0825.4,4.99,0.00,29.1,27.2,00.0,37.9,30.9,33.6,0000.0,0007.39,0003.10,0002.23
2022-08-03 01:26:00,,0825.4,5.01,0.00,29.1,27.4,00.0,37.9,30.9,33.6,0000.0,0007.16,0003.00,0002.21
2022-08-03 01:27:00,,0825.4,4.99,0.00,29.1,27.6,00.0,37.9,31.0,33.7,0000.0,0007.61,0003.06,0002.21
2022-08-03 01:28:00,,0825.4,5.01,0.00,29.2,27.8,00.0,37.9,31.1,33.6,0000.0,0007.93,0003.13,0002.21
2022-08-03 01:29:00,,0825.5,5.00,0.00,29.2,28.0,00.0,37.9,31.2,33.5,0000.0,0007.19,0003.12,0002.23
2022-08-03 01:30:00,,0825.4,5.00,0.00,29.3,28.1,00.0,38.0,31.3,33.5,0000.0,0006.58,0003.14,0002.23
2022-08-03 01:31:00,,0825.4,5.00,0.00,29.3,28.3,00.0,38.0,31.3,33.5,0000.0,0007.41,0003.13,0002.22
2022-08-03 01:32:00,,0825.4,5.00,0.00,29.3,27.9,00.0,38.0,31.2,33.5,0000.0,0007.74,0003.09,0002.23
2022-08-03 01:33:00,,0825.4,5.00,0.00,29.3,27.2,00.0,37.9,31.1,33.6,0000.0,0008.08,0003.09,0002.24
2022-08-03 01:34:00,,0825.4,5.00,0.00,29.2,26.9,00.0,37.9,31.0,33.6,0000.0,0008.63,0003.12,0002.25
2022-08-03 01:35:00,,0825.4,5.00,0.00,29.2,26.9,00.0,37.9,30.9,33.8,0000.0,0008.64,0003.16,0002.24
2022-08-03 01:36:00,,0825.4,4.99,0.00,29.1,27.0,00.0,37.9,30.9,33.9,0000.0,0008.75,0003.21,0002.25
2022-08-03 01:37:00,,0825.5,5.01,0.00,29.1,27.2,00.0,37.9,30.9,34.0,0000.0,0008.74,0003.22,0002.26
2022-08-03 01:38:00,,0825.5,4.99,0.00,29.1,27.4,00.0,37.9,31.0,34.0,0000.0,0008.85,0003.21,0002.27
2022-08-03 01:39:00,,0825.5,5.01,0.00,29.1,27.6,00.0,37.9,31.0,34.0,0000.0,0008.95,0003.19,0002.27
2022-08-03 01:40:00,,0825.5,4.99,0.00,29.2,27.8,00.0,37.9,31.1,33.8,0000.0,0009.05,0003.21,0002.29
2022-08-03 01:41:00,,0825.5,5.00,0.00,29.2,28.0,00.0,37.9,31.2,33.7,0000.0,0009.10,0003.21,0002.29
2022-08-03 01:42:00,,0825.5,5.01,0.00,29.3,28.2,00.0,38.0,31.3,33.7,0000.0,0008.55,0003.22,0002.30
2022-08-03 01:43:00,,0825.6,4.99,0.00,29.3,28.2,00.0,38.0,31.3,33.7,0000.0,0008.88,0003.23,0002.29
2022-08-03 01:44:00,,0825.5,5.00,0.00,29.3,27.8,00.0,38.0,31.2,33.8,0000.0,0008.69,0003.24,0002.29
2022-08-03 01:45:00,,0825.5,5.02,0.00,29.3,27.1,00.0,38.0,31.1,33.9,0000.0,0008.00,0003.20,0002.30
2022-08-03 01:46:00,,0825.6,4.99,0.00,29.2,26.9,00.0,37.9,31.0,33.9,0000.0,0008.03,0003.19,0002.31
2022-08-03 01:47:00,,0825.6,5.00,0.00,29.1,26.9,00.0,37.9,30.9,34.2,0000.0,0008.17,0003.15,0002.32
2022-08-03 01:48:00,,0825.7,4.99,0.00,29.1,27.1,00.0,37.9,30.8,34.3,0000.0,0008.93,0003.15,0002.31
2022-08-03 01:49:00,,0825.8,5.01,0.00,29.1,27.2,00.0,37.9,30.9,34.3,0000.0,0008.59,0003.14,0002.32
2022-08-03 01:50:00,,0825.8,4.98,0.00,29.1,27.4,00.0,37.9,31.0,34.2,0000.0,0008.02,0003.15,0002.33
2022-08-03 01:51:00,,0825.9,5.01,0.00,29.1,27.6,00.0,37.9,31.0,34.2,0000.0,0008.52,0003.16,0002.34
2022-08-03 01:52:00,,0825.9,4.99,0.00,29.2,27.8,00.0,37.9,31.2,34.1,0000.0,0008.66,0003.16,0002.34
2022-08-03 01:53:00,,0826.0,5.00,0.00,29.2,28.0,00.0,37.9,31.2,34.3,0000.0,0008.68,0003.18,0002.36
2022-08-03 01:54:00,,0826.0,5.00,0.00,29.3,28.2,00.0,38.0,31.3,34.3,0000.0,0008.21,0003.20,0002.37
2022-08-03 01:55:00,,0826.0,5.00,0.00,29.3,28.1,00.0,38.0,31.3,34.3,0000.0,0008.06,0003.17,0002.36
2022-08-03 01:56:00,,0826.1,5.00,0.00,29.3,27.5,00.0,38.0,31.1,34.6,0000.0,0008.16,0003.22,0002.38
2022-08-03 01:57:00,,0826.1,5.00,0.00,29.2,27.0,00.0,37.9,31.0,34.7,0000.0,0008.21,0003.25,0002.40
2022-08-03 01:58:00,,0826.1,5.00,0.00,29.2,26.9,00.0,37.9,31.0,34.6,0000.0,0008.06,0003.27,0002.42
2022-08-03 01:59:00,,0826.2,5.00,0.00,29.1,26.9,00.0,37.9,30.8,34.9,0000.0,0007.51,0003.29,0002.43
